map of LBV home
Great Circle Mapper logo
LBV - Airport
Location
City:  Libreville, Gabon
Name:Leon M'Ba
ICAO / IATA:FOOL / LBV

Details
Type:Airport (Aerodrome, Airfield)
Use:Public/Civil, Military, International (customs port of entry)
Latitude:027'31"N (0.458600)
Longitude:924'44"E (9.412283)
Datum:WGS 1984
Elevation:39 ft (12 m)
Runways:1
Longest:9844 × 148 ft (3000 × 45 m), paved

Time
Time Zone:UTC+1
Local Time:

Weather
METAR:FOOL 010804Z 15008KT 6000 -RA SCT006 BKN030 24/23 Q1016 NOSIG
TAF:FOOL 011100Z 0112/0218 22008KT 9999 SCT011 BKN033 PROB30
TEMPO 0200/0206 3000 RADZ BKN006 OVC026

Related Locations
Nearby:
Farthest:CIS: 12257 mi / 19725 km
Canton Island, KI

Find:

   beyond  
but within

Other Information
Maps:
NOTAMs:
Links:
Sources:

  
flag of Gabon   

Sectional Chart

Flight Planning
at skyvector.com

Satellite Image

Google Maps Satellite View

 

Copyright © 2004-2014 Karl L. Swartz. All rights reserved.
The Great Circle Mapper name and logo are trademarks of the Great Circle Mapper.
All other trademarks mentioned herein belong to their respective owners.
Please see credits for attibutions and further copyright information.

  Follow gcmap on Facebook Follow gcmap on Twitter

hCard Microformat

Geo Microformat